[[{"header":{"parameterUnit":"m.s-1","parameterCategory":1,"la1":30.2991,"la2":30.254,"lo1":-89.0895,"lo2":-89.0444,"dy":0.0017,"dx":0.0017,"nx":28,"ny":28,"refTime":"2024-11-26T03:00:00:Z","depth":0,"parameterNumber":2,"parameterNumberName":"U-component_of_WINDS"},"data":[0,0,0,0,0,0,0,0,0,0,0,0,0,0,0,0,0,0,0,0,0,0,0,0,0,0,0,0,0,0,0,0,0,0,0,0,0,0,0,0,0,0,0,0,0,0,0,0,0,0,0,0,0,0,0,0,0,0,-0.9131,-0.9131,0,-0.9066,-0.9065,-0.9064,-0.9024,-0.9024,-0.9024,-0.9024,-0.8959,-0.8957,-0.8956,0,0,0,0,0,0,0,0,0,0,0,0,0,-0.9224,-0.9222,-0.9132,-0.9131,-0.913,-0.9066,-0.9065,-0.9064,-0.9024,-0.9024,-0.9024,-0.9024,-0.8959,-0.8957,-0.8955,0,0,0,0,0,0,0,0,0,0,0,0,0,-0.9173,-0.9222,-0.9132,-0.9102,-0.9099,-0.9066,-0.9065,-0.9064,-0.9024,-0.9024,-0.9024,-0.9023,-0.896,-0.8957,-0.8955,-0.8947,0,0,-0.8948,-0.8947,0,0,0,0,0,0,0,0,-0.9176,-0.917,-0.9107,-0.9104,-0.91,-0.9053,-0.9074,-0.9025,-0.9024,-0.9053,-0.9024,-0.9023,-0.899,-0.8985,-0.8974,-0.8944,-0.8941,-0.8948,-0.8947,-0.8946,-0.8945,0,0,0,0,0,0,0,-0.918,-0.9173,-0.9106,-0.9107,-0.9102,-0.9093,-0.9085,-0.9064,-0.9024,-0.905,-0.9047,-0.904,-0.8988,-0.8976,-0.8972,-0.894,-0.8948,-0.8946,-0.8945,-0.8944,-0.89,-0.89,0,0,0,0,0,0,-0.9188,-0.9176,-0.9108,-0.9104,-0.9138,-0.9091,-0.9083,-0.9068,-0.9024,-0.9017,-0.904,-0.9038,-0.898,-0.8975,-0.897,-0.8956,-0.8946,-0.8943,-0.8942,-0.8899,-0.89,-0.89,0,0,0,0,0,0,-0.919,-0.9182,-0.911,-0.9139,-0.9129,-0.909,-0.9074,-0.9067,-0.9055,-0.9017,-0.9009,-0.9035,-0.898,-0.8973,-0.8953,-0.8954,-0.8942,-0.894,-0.8899,-0.89,-0.89,-0.893,0,0,0,0,0,0,-0.9193,-0.9183,-0.9179,-0.9139,-0.9128,-0.9094,-0.9074,-0.9066,-0.9051,-0.9048,-0.901,-0.9003,-0.8979,-0.8956,-0.895,-0.895,-0.8938,-0.8899,-0.8899,-0.89,-0.8929,-0.8932,-0.8934,0,0,0,0,0,-0.9196,-0.9191,-0.9179,-0.9171,-0.9122,-0.9094,-0.9088,-0.9059,-0.9051,-0.9047,-0.9022,-0.9005,-0.8955,-0.8955,-0.8948,-0.8947,-0.8899,-0.8899,-0.89,-0.8928,-0.8931,-0.8934,0,0,0,0,0,0,-0.9234,-0.9186,-0.9172,-0.9154,-0.9128,-0.9088,-0.9082,-0.9064,-0.9041,-0.9039,-0.9005,-0.8997,-0.898,-0.8961,-0.8962,-0.8936,-0.8925,-0.8924,-0.8949,-0.8951,-0.8954,-0.8958,-0.8937,0,0,0,0,0,-0.924,-0.9221,-0.918,-0.9168,-0.9156,-0.9121,-0.9108,-0.9088,-0.9061,-0.905,-0.9024,-0.8998,-0.8976,-0.8963,-0.8941,-0.8927,-0.8917,-0.8923,-0.8925,-0.8927,-0.8927,-0.8916,-0.8918,-0.8902,-0.8902,-0.8902,0,0,-0.9253,-0.9224,-0.9214,-0.9175,-0.9153,-0.9134,-0.9112,-0.9094,-0.9079,-0.9047,-0.9026,-0.9006,-0.8975,-0.8957,-0.8948,-0.8941,-0.8929,-0.8928,-0.893,-0.8928,-0.8917,-0.8919,-0.892,-0.8902,-0.8902,-0.8902,0,0,-0.9266,-0.9243,-0.9229,-0.9207,-0.9174,-0.915,-0.9147,-0.9109,-0.9094,-0.9072,-0.9047,-0.903,-0.8994,-0.8972,-0.8957,-0.8961,-0.8943,-0.8955,-0.8968,-0.8958,-0.8959,-0.896,-0.8961,-0.8961,-0.8955,-0.8955,-0.8955,0,-0.9286,-0.9256,-0.9225,-0.9207,-0.919,-0.916,-0.9146,-0.9126,-0.9088,-0.9077,-0.907,-0.9023,-0.9,-0.8976,-0.8977,-0.8966,-0.8961,-0.8959,-0.8961,-0.8962,-0.8962,-0.8963,-0.8963,-0.8956,-0.8956,-0.8956,-0.8956,0,-0.9282,-0.9261,-0.9255,-0.9217,-0.9199,-0.9184,-0.9151,-0.9137,-0.9119,-0.9096,-0.9074,-0.9045,-0.9017,-0.901,-0.8992,-0.8983,-0.898,-0.8968,-0.8955,-0.8966,-0.8965,-0.8965,-0.8959,-0.8958,-0.8958,-0.8957,0,0,-0.9317,-0.9261,-0.9259,-0.9241,-0.9201,-0.9185,-0.9168,-0.9139,-0.9127,-0.9102,-0.9086,-0.9056,-0.9044,-0.9026,-0.9006,-0.8998,-0.9002,-0.8986,-0.8985,-0.8989,-0.8989,-0.8998,-0.8998,-0.899,-0.899,-0.899,-0.8991,0,-0.9323,-0.929,-0.9261,-0.9239,-0.9219,-0.9189,-0.9174,-0.9148,-0.9127,-0.9107,-0.9084,-0.9062,-0.9049,-0.9038,-0.9028,-0.9003,-0.9001,-0.9003,-0.8975,-0.8975,-0.8983,-0.8998,-0.9007,-0.901,-0.8991,-0.8991,-0.8991,0,-0.9326,-0.93,-0.9275,-0.9236,-0.9227,-0.9214,-0.9184,-0.9166,-0.9136,-0.9121,-0.9101,-0.908,-0.906,-0.905,-0.9023,-0.9025,-0.9012,-0.8998,-0.8997,-0.8993,-0.8983,-0.8993,-0.901,-0.901,-0.899,-0.899,-0.899,0,-0.9353,-0.9312,-0.9291,-0.9277,-0.9231,-0.9222,-0.9203,-0.9173,-0.9157,-0.9131,-0.9121,-0.9094,-0.9079,-0.9059,-0.9031,-0.9026,-0.9006,-0.8994,-0.8993,-0.8994,-0.8989,-0.899,-0.9003,-0.8983,-0.8983,-0.8983,-0.8983,0,-0.9362,-0.9348,-0.9302,-0.9289,-0.9272,-0.924,-0.9224,-0.9202,-0.9175,-0.9158,-0.9132,-0.9116,-0.908,-0.9061,-0.9039,-0.9019,-0.9013,-0.9,-0.8994,-0.9002,-0.9003,-0.8992,-0.8991,-0.8983,-0.8983,-0.8983,-0.8983,0,-0.9389,-0.9358,-0.9333,-0.9291,-0.928,-0.927,-0.9234,-0.9221,-0.9198,-0.9176,-0.9169,-0.9133,-0.9108,-0.9078,-0.9045,-0.903,-0.9012,-0.9004,-0.9021,-0.9018,-0.9018,-0.9018,-0.9024,-0.9022,-0.9004,-0.9004,-0.9005,0,-0.9396,-0.9384,-0.9341,-0.9327,-0.9308,-0.9286,-0.9269,-0.9236,-0.922,-0.9184,-0.9175,-0.9148,-0.9125,-0.9087,-0.9058,-0.9032,-0.9022,-0.9026,-0.9018,-0.9026,-0.9021,-0.9021,-0.902,-0.9028,-0.9028,-0.9029,-0.9029,0,-0.9413,-0.9398,-0.9374,-0.9344,-0.9324,-0.93,-0.9274,-0.9264,-0.9227,-0.921,-0.9183,-0.9165,-0.913,-0.9103,-0.9073,-0.9054,-0.9035,-0.9032,-0.903,-0.9037,-0.9047,-0.904,-0.9026,-0.9031,-0.9031,-0.9031,-0.9031,-0.9031,-0.9429,-0.9416,-0.9383,-0.9357,-0.9334,-0.9311,-0.9296,-0.927,-0.9247,-0.9215,-0.9198,-0.9172,-0.9142,-0.9099,-0.908,-0.906,-0.9053,-0.9051,-0.905,-0.905,-0.9051,-0.9051,-0.9054,-0.9054,-0.9054,-0.9054,-0.9054,0,-0.9443,-0.942,-0.9396,-0.936,-0.934,-0.9323,-0.9294,-0.9278,-0.9255,-0.9228,-0.9205,-0.9175,-0.9148,-0.9117,-0.9089,-0.9079,-0.9069,-0.9072,-0.9072,-0.9068,-0.9059,-0.9063,-0.908,-0.908,-0.908,-0.908,-0.908,-0.908,-0.9448,-0.9425,-0.9406,-0.9371,-0.9348,-0.9322,-0.9306,-0.9284,-0.9262,-0.9229,-0.9207,-0.9186,-0.9158,-0.9127,-0.9102,-0.9094,-0.9085,-0.909,-0.9079,-0.9071,-0.9069,-0.9067,-0.907,-0.9088,-0.9088,-0.9089,-0.9089,-0.9089]},{"header":{"parameterUnit":"m.s-1","parameterCategory":1,"la1":30.2991,"la2":30.254,"lo1":-89.0895,"lo2":-89.0444,"dy":0.0017,"dx":0.0017,"nx":28,"ny":28,"refTime":"2024-11-26T03:00:00:Z","depth":0,"parameterNumber":3,"parameterNumberName":"V-component_of_WINDS"},"data":[0,0,0,0,0,0,0,0,0,0,0,0,0,0,0,0,0,0,0,0,0,0,0,0,0,0,0,0,0,0,0,0,0,0,0,0,0,0,0,0,0,0,0,0,0,0,0,0,0,0,0,0,0,0,0,0,0,0,3.1237,3.1237,0,3.1265,3.1265,3.1265,3.1235,3.1233,3.1232,3.1231,3.1256,3.1258,3.126,0,0,0,0,0,0,0,0,0,0,0,0,0,3.1155,3.1156,3.1237,3.1237,3.1238,3.1264,3.1265,3.1265,3.1235,3.1233,3.1232,3.1231,3.1256,3.1258,3.126,0,0,0,0,0,0,0,0,0,0,0,0,0,3.1187,3.1157,3.1237,3.1226,3.1225,3.1264,3.1265,3.1265,3.1235,3.1233,3.1232,3.123,3.1255,3.1258,3.126,3.1311,0,0,3.1268,3.1269,0,0,0,0,0,0,0,0,3.1185,3.119,3.1227,3.1227,3.1226,3.1244,3.1245,3.128,3.1235,3.1231,3.1231,3.1229,3.1253,3.1256,3.1265,3.1312,3.1313,3.1268,3.127,3.1271,3.1272,0,0,0,0,0,0,0,3.1183,3.1189,3.1248,3.1228,3.1227,3.1218,3.1221,3.1252,3.1252,3.1231,3.1229,3.1233,3.1253,3.1263,3.1265,3.1313,3.1268,3.1271,3.1272,3.1273,3.1404,3.1406,0,0,0,0,0,0,3.1183,3.1187,3.1247,3.1248,3.1201,3.1221,3.1224,3.124,3.1251,3.1251,3.1235,3.1232,3.1259,3.1262,3.1266,3.1327,3.1271,3.1273,3.1275,3.1402,3.1404,3.1406,0,0,0,0,0,0,3.1181,3.1188,3.1246,3.1217,3.1224,3.1225,3.1243,3.1242,3.1251,3.1254,3.1253,3.1245,3.1258,3.1262,3.13,3.1327,3.1275,3.1277,3.14,3.1403,3.1405,3.1449,0,0,0,0,0,0,3.1179,3.1188,3.1208,3.1218,3.1226,3.1281,3.1244,3.1243,3.1256,3.1253,3.1263,3.1263,3.1257,3.1297,3.1303,3.133,3.1279,3.1397,3.1401,3.1405,3.1445,3.1453,3.146,0,0,0,0,0,3.1176,3.1218,3.1209,3.1216,3.1251,3.1282,3.1286,3.1279,3.1259,3.1278,3.128,3.1263,3.1323,3.1301,3.1308,3.1336,3.1396,3.14,3.1404,3.1442,3.1451,3.1459,0,0,0,0,0,0,3.1209,3.1219,3.1209,3.1256,3.1269,3.1277,3.1302,3.1289,3.1307,3.1303,3.1292,3.1295,3.1335,3.1339,3.1314,3.1386,3.1356,3.1362,3.1382,3.1391,3.1398,3.1397,3.1281,0,0,0,0,0,3.1223,3.1248,3.1255,3.1295,3.1302,3.1301,3.1314,3.1308,3.132,3.1325,3.1329,3.1341,3.1362,3.1377,3.1397,3.1445,3.1447,3.1468,3.1475,3.1481,3.1487,3.1513,3.1523,3.1421,3.1421,3.142,0,0,3.1249,3.1258,3.1274,3.1302,3.1311,3.1338,3.1306,3.1334,3.1354,3.1329,3.1366,3.1369,3.1381,3.1425,3.1444,3.1429,3.1515,3.1487,3.1491,3.1494,3.1519,3.1528,3.1537,3.1423,3.1423,3.1422,0,0,3.1312,3.1321,3.1356,3.1366,3.1381,3.138,3.1388,3.1399,3.1401,3.1438,3.142,3.1442,3.1479,3.1489,3.1499,3.1566,3.1551,3.1572,3.1611,3.1637,3.1645,3.1652,3.1677,3.1686,3.1578,3.1578,3.1578,0,3.1343,3.1383,3.1376,3.1407,3.1419,3.1399,3.1435,3.1444,3.1464,3.1473,3.1456,3.1504,3.151,3.1557,3.1573,3.1581,3.1591,3.1572,3.1645,3.1652,3.1658,3.1682,3.1691,3.158,3.158,3.158,3.1579,0,3.1422,3.145,3.1476,3.1498,3.1513,3.1546,3.1543,3.1559,3.1552,3.1552,3.159,3.1597,3.1619,3.1629,3.1621,3.1674,3.1665,3.1646,3.1616,3.1671,3.1693,3.1702,3.1584,3.1583,3.1582,3.1582,0,0,3.1507,3.1524,3.1534,3.1544,3.1559,3.158,3.1612,3.1634,3.1649,3.1663,3.169,3.1722,3.1705,3.1717,3.1709,3.1732,3.1786,3.1711,3.1711,3.1726,3.1846,3.1861,3.1871,3.1776,3.1777,3.1779,3.1845,0,3.1571,3.1628,3.1622,3.1676,3.1702,3.1683,3.171,3.1722,3.1723,3.1745,3.1745,3.1769,3.1745,3.1752,3.1773,3.1775,3.181,3.177,3.18,3.1801,3.1799,3.1883,3.1898,3.1961,3.1854,3.1855,3.1856,0,3.1653,3.1672,3.1729,3.1741,3.1752,3.1777,3.1797,3.1818,3.1831,3.183,3.1843,3.1832,3.1863,3.1832,3.1875,3.1848,3.1859,3.1862,3.1864,3.1868,3.1833,3.1889,3.1981,3.1991,3.187,3.1869,3.1868,0,3.1711,3.175,3.179,3.1799,3.1813,3.1832,3.1838,3.1849,3.1863,3.1881,3.189,3.191,3.1921,3.1937,3.1931,3.1909,3.1975,3.1943,3.1976,3.1976,3.1992,3.1991,3.2087,3.1997,3.1997,3.1997,3.1997,0,3.1784,3.182,3.1817,3.1841,3.188,3.1873,3.1912,3.1916,3.1926,3.195,3.1934,3.1957,3.1948,3.197,3.1965,3.2002,3.2007,3.2007,3.2005,3.2009,3.2009,3.2018,3.2013,3.2,3.1999,3.1998,3.1998,0,3.1856,3.1855,3.1897,3.1908,3.1911,3.194,3.1948,3.1971,3.1971,3.2002,3.2009,3.2008,3.2034,3.203,3.2057,3.2054,3.21,3.2093,3.2097,3.2095,3.2128,3.2126,3.2234,3.2248,3.2148,3.2149,3.215,0,3.1903,3.193,3.1944,3.196,3.1969,3.1994,3.2009,3.2002,3.2018,3.2035,3.2055,3.208,3.2099,3.214,3.2141,3.2162,3.2156,3.2192,3.2159,3.2162,3.2158,3.2157,3.216,3.2199,3.2201,3.2202,3.2202,0,3.1987,3.1986,3.2008,3.2031,3.205,3.2067,3.2082,3.2096,3.209,3.2109,3.2135,3.215,3.2179,3.2203,3.2223,3.2229,3.2215,3.2213,3.2222,3.2226,3.2228,3.2229,3.2116,3.221,3.221,3.2209,3.2209,3.2208,3.2049,3.2073,3.2087,3.2113,3.2124,3.2139,3.2162,3.2165,3.2187,3.2211,3.2205,3.2235,3.2247,3.2273,3.228,3.2303,3.229,3.2302,3.2305,3.2309,3.2314,3.2223,3.2306,3.2306,3.2306,3.2306,3.2306,0,3.2133,3.2142,3.2166,3.2189,3.2209,3.2195,3.2212,3.2229,3.2257,3.2269,3.2289,3.232,3.2343,3.2347,3.2369,3.2387,3.2381,3.2393,3.2392,3.2394,3.2324,3.2315,3.2397,3.2397,3.2397,3.2397,3.2397,3.2397,3.218,3.222,3.2221,3.2266,3.2273,3.2304,3.2315,3.2329,3.2339,3.2375,3.2395,3.2397,3.2406,3.2429,3.245,3.245,3.246,3.2474,3.2472,3.2407,3.2398,3.239,3.2381,3.2476,3.2476,3.254,3.2541,3.2541]}]]